[TLELIST] Archives

 

[list_settings.list_name] Current TLEs

May 18th 2013 PDT

HST 1 20580U 90037B 13137.40860068 .00002150 00000-0 14133-3 0 2414 2 20580 028.4698 114.5934 0003494 024.4409 109.9519 15.03589317 65067 ISS (ZARYA) 1 25544U 98067A 13138.47846693 .00018095 00000-0 32067-3 0 8323 2 25544 051.6483 255.6378 0009195 328.3948 118.9189 15.50284857830098 CXO 1 25867U 99040B 13138.82242806 -.00000501 00000-0 00000+0 0 9028 2 25867 075.2471 341.3378 8584059 277.5448 359.7775 00.37798894 10426 ____________________________________________________________________ These 2-Line ...Continue Reading

[list_settings.list_name] Current TLEs

May 17th 2013 PDT

HST 1 20580U 90037B 13136.14009751 .00002132 00000-0 14007-3 0 2407 2 20580 028.4696 122.9088 0003546 012.3648 082.1943 15.03583292 64863 ISS (ZARYA) 1 25544U 98067A 13137.37623628 .00013736 00000-0 24598-3 0 8251 2 25544 051.6483 261.1025 0008806 325.1710 086.5866 15.50230597829923 CXO 1 25867U 99040B 13138.82242806 -.00000501 00000-0 00000+0 0 9028 2 25867 075.2471 341.3378 8584059 277.5448 359.7775 00.37798894 10426 ____________________________________________________________________ These 2-Line ...Continue Reading

[list_settings.list_name] Current TLEs

May 16th 2013 PDT

HST 1 20580U 90037B 13136.14009751 .00002132 00000-0 14007-3 0 2407 2 20580 028.4696 122.9088 0003546 012.3648 082.1943 15.03583292 64863 ISS (ZARYA) 1 25544U 98067A 13136.34366604 .00017363 00000-0 29863-3 0 8198 2 25544 051.6498 266.2212 0005008 317.2691 085.4406 15.51193452829763 CXO 1 25867U 99040B 13138.82242806 -.00000501 00000-0 00000+0 0 9028 2 25867 075.2471 341.3378 8584059 277.5448 359.7775 00.37798894 10426 ____________________________________________________________________ These 2-Line ...Continue Reading

[list_settings.list_name] Current TLEs

May 15th 2013 PDT

HST 1 20580U 90037B 13134.41890367 .00001964 00000-0 12807-3 0 2392 2 20580 028.4692 134.1912 0003456 355.0916 124.4636 15.03576963 64614 ISS (ZARYA) 1 25544U 98067A 13135.50630547 .00009789 00000-0 17215-3 0 8141 2 25544 051.6493 270.3776 0005144 311.5553 092.0374 15.51156193829639 CXO 1 25867U 99040B 13136.17687954 -.00000476 00000-0 00000+0 0 9011 2 25867 075.2263 341.4833 8585809 277.5840 359.6029 00.37796753 10414 ____________________________________________________________________ These 2-Line ...Continue Reading

[list_settings.list_name] Current TLEs

May 14th 2013 PDT

HST 1 20580U 90037B 13133.15030543 .00002086 00000-0 13680-3 0 2389 2 20580 028.4691 142.5067 0003407 342.4194 096.8410 15.03572357 64414 ISS (ZARYA) 1 25544U 98067A 13134.41058172 .00011518 00000-0 20149-3 0 8073 2 25544 051.6484 275.8101 0005173 309.7690 091.1064 15.51103696829461 CXO 1 25867U 99040B 13136.17687954 -.00000476 00000-0 00000+0 0 9011 2 25867 075.2263 341.4833 8585809 277.5840 359.6029 00.37796753 10414 ____________________________________________________________________ These 2-Line ...Continue Reading

[list_settings.list_name] Current TLEs

May 13th 2013 PDT

HST 1 20580U 90037B 13133.15030543 .00002086 00000-0 13680-3 0 2389 2 20580 028.4691 142.5067 0003407 342.4194 096.8410 15.03572357 64414 ISS (ZARYA) 1 25544U 98067A 13133.51513756 .00010382 00000-0 18258-3 0 7993 2 25544 051.6480 280.2537 0005053 305.4068 132.0569 15.51078726829324 CXO 1 25867U 99040B 13133.53129310 -.00000571 00000-0 00000+0 0 9000 2 25867 075.2009 341.6584 8589098 277.6078 359.4288 00.37799041 10402 ____________________________________________________________________ These 2-Line ...Continue Reading

[list_settings.list_name] Current TLEs

May 12th 2013 PDT

HST 1 20580U 90037B 13131.49960753 .00001558 00000-0 99133-4 0 2379 2 20580 028.4689 153.3265 0003284 324.2700 162.3865 15.03567927 64178 ISS (ZARYA) 1 25544U 98067A 13132.41397693 .00011291 00000-0 19801-3 0 7930 2 25544 051.6482 285.7163 0005195 301.4571 103.2417 15.51057210829151 CXO 1 25867U 99040B 13133.53129310 -.00000571 00000-0 00000+0 0 9000 2 25867 075.2009 341.6584 8589098 277.6078 359.4288 00.37799041 10402 ____________________________________________________________________ These 2-Line ...Continue Reading

[list_settings.list_name] Current TLEs

May 11th 2013 PDT

HST 1 20580U 90037B 13130.44192984 .00001358 00000-0 84824-4 0 2364 2 20580 028.4689 160.2600 0003224 312.5955 197.7332 15.03565163 64018 ISS (ZARYA) 1 25544U 98067A 13131.45971493 .00010124 00000-0 17852-3 0 7870 2 25544 051.6480 290.4494 0004803 292.6567 180.1573 15.51035304829001 CXO 1 25867U 99040B 13133.53129310 -.00000571 00000-0 00000+0 0 9000 2 25867 075.2009 341.6584 8589098 277.6078 359.4288 00.37799041 10402 ____________________________________________________________________ These 2-Line ...Continue Reading

[list_settings.list_name] Current TLEs

May 10th 2013 PDT

HST 1 20580U 90037B 13129.16350664 .00001495 00000-0 94640-4 0 2350 2 20580 028.4687 168.6386 0003034 297.6803 119.1228 15.03561569 63818 ISS (ZARYA) 1 25544U 98067A 13130.48251565 .00004105 00000-0 77164-4 0 7812 2 25544 051.6465 295.2983 0005066 290.4578 122.3688 15.51008657828858 CXO 1 25867U 99040B 13130.88883492 -.00000721 00000-0 00000+0 0 8997 2 25867 075.1832 341.8445 8590876 277.6230 359.6797 00.37800212 10397 ____________________________________________________________________ These 2-Line ...Continue Reading

[list_settings.list_name] Current TLEs

May 9th 2013 PDT

HST 1 20580U 90037B 13127.58339616 .00001827 00000-0 11838-3 0 2343 2 20580 028.4690 179.0025 0002942 280.2726 206.8218 15.03555887 63580 ISS (ZARYA) 1 25544U 98067A 13128.61961881 -.00041052 00000-0 -69116-3 0 7713 2 25544 051.6461 304.5496 0005036 282.3034 161.9960 15.50941328828561 CXO 1 25867U 99040B 13130.88883492 -.00000721 00000-0 00000+0 0 8997 2 25867 075.1832 341.8445 8590876 277.6230 359.6797 00.37800212 10397 ____________________________________________________________________ These 2-Line ...Continue Reading
  • This mailing list is a public mailing list - anyone may join or leave, at any time.
  • This mailing list is announce-only.

International Space Station (ISS) / Hubble Space Telescope (HST) / Chandra X-Ray Observatory Orbital Data via EMAIL

Privacy Policy:

Private list